Location: F?ge?el
(45.8833°N, 22.5833°E)
Time: 07:05:40
(UTC+00:00)

ISS - Pass Details

Date: 17 November 2025
Orbit: 416 x 420 km, 51.6° (Epoch: 13 December)

Event Time Altitude Azimuth Distance (km) Brightness Sun altitude
Rises 17:11:47 0° 267° (W) 2,365 1.5 -23.4°
Reaches altitude 10° 17:13:58 10° 276° (W) 1,501 0.1 -23.8°
Enters shadow 17:16:16 31° 309° (NW) 763 -2.1 -24.2°
